Location: St. Louis
(38.6270°N, 90.1994°W)
Time: 19:40:33
(UTC-06:00)

Courier 1B Rocket - Pass Details

Date: 08 December 2021
Orbit: 920 x 1202 km, 28.2° (Epoch: 21 January)

Event Time Altitude Azimuth Distance (km) Brightness Sun altitude
Rises 23:03:54 0° 256° (WSW) 3,721 - -71.0°
Reaches altitude 10° 23:06:55 10° 246° (WSW) 2,727 - -71.4°
Maximum altitude 23:12:35 31° 186° (S) 1,579 - -72.0°
Drops below altitude 10° 23:18:02 10° 126° (SE) 2,616 - -72.5°
Sets 23:20:52 0° 116° (ESE) 3,547 - -72.8°
